Location: Anaheim
(33.8350°N, 117.9140°W)
Time: 18:37:27
(UTC-07:00)

Amateur Radio Satellites - All Passes

Search period start: 28 September 2016 18:07
Search period end: 29 September 2016 18:07
Location: Anaheim, 33.8350°N, 117.9140°W

Satellite Date Start Highest point End Downlink Frequencies (MHz)
Time Altitude Azimuth
DOVE 4 28 Sep 18:09:30 18:13:43 27° 72° (ENE) 18:17:45 437.250
CUBESAT XI-V 28 Sep 18:29:36 18:34:04 44° 287° (WNW) 18:38:28 437.345
NOAA 18 28 Sep 18:36:27 18:41:55 85° 75° (ENE) 18:47:24 137.9125
RS-15 28 Sep 18:39:52 18:49:43 35° 104° (ESE) 18:59:59 29.354- 29.394
CUSAT 1 28 Sep 18:50:28 18:56:14 54° 91° (E) 19:03:24 437.405
DANDE 28 Sep 18:51:12 18:54:10 15° 79° (E) 18:57:32 436.750
GONETS M04 28 Sep 18:51:49 18:58:48 26° 71° (ENE) 19:05:41
NOAA 15 28 Sep 19:09:26 19:13:59 29° 263° (W) 19:18:35 137.62
ISS 28 Sep 19:10:36 19:13:36 36° 132° (SE) 19:16:37 145.825
CINEMA 3 28 Sep 19:15:03 19:19:02 32° 73° (ENE) 19:22:53 145.822/145.860
CUTE 1.7 + AOD 2 28 Sep 19:16:31 19:19:46 22° 70° (ENE) 19:23:03 437.475
SEEDS 28 Sep 19:17:09 19:19:35 15° 68° (ENE) 19:22:01 437.485
CANX-2 28 Sep 19:17:39 19:21:10 26° 71° (ENE) 19:24:44 2200.000
CUTE-I 28 Sep 19:29:19 19:33:29 23° 264° (W) 19:37:41 437.470
Cubesat XI-IV 28 Sep 19:29:27 19:33:38 24° 264° (W) 19:37:51 437.490
GOMX 1 28 Sep 19:30:56 19:34:44 19° 266° (W) 19:38:26 467.674
AAUSAT CUBESAT 2 28 Sep 19:37:29 19:39:28 13° 67° (ENE) 19:41:27 437.432
HO-68 28 Sep 19:41:56 19:48:59 65° 72° (ENE) 19:56:04 435.675
DOVE 4 28 Sep 19:47:01 19:51:17 27° 263° (W) 19:55:23 437.250
STRAND 1 28 Sep 19:54:11 19:59:15 55° 101° (E) 20:04:17 437.568
Cosmos 2499 28 Sep 19:54:19 20:01:51 57° 81° (E) 20:09:58 435.465 / 435.565
AO-85 28 Sep 20:01:40 20:06:18 31° 112° (ESE) 20:10:44 145.980
JUGNU 28 Sep 20:04:40 20:08:26 17° 171° (S) 20:12:10 437.505
CUBEBUG 2 28 Sep 20:16:06 20:20:00 38° 74° (ENE) 20:23:51 437.445
FUNcube-1 28 Sep 20:18:29 20:20:39 14° 68° (ENE) 20:22:49 145.935
COMPASS 1 28 Sep 20:20:20 20:24:26 59° 76° (ENE) 20:28:34 437.405
DANDE 28 Sep 20:31:03 20:35:51 54° 284° (WNW) 20:42:15 436.750
UWE-3 28 Sep 20:32:08 20:35:59 37° 74° (ENE) 20:39:49 435.000/436.395/437.385
CUSAT 1 28 Sep 20:33:51 20:38:46 23° 293° (WNW) 20:44:27 437.405
GONETS M04 28 Sep 20:47:29 20:56:03 59° 269° (W) 21:04:33
ISS 28 Sep 20:47:47 20:50:10 19° 327° (NNW) 20:52:34 145.825
DELFI C3 28 Sep 20:49:22 20:50:59 12° 67° (ENE) 20:52:38 145.870
RS-15 28 Sep 20:50:04 21:01:25 61° 304° (NW) 21:13:28 29.354- 29.394
SEEDS 28 Sep 20:51:05 20:54:56 36° 262° (W) 20:58:50 437.485
CUTE 1.7 + AOD 2 28 Sep 20:52:01 20:55:27 24° 264° (W) 20:58:55 437.475
CINEMA 3 28 Sep 20:53:05 20:56:10 18° 265° (W) 20:59:10 145.822/145.860
CANX-2 28 Sep 20:53:51 20:56:58 20° 265° (W) 21:00:07 2200.000
Oscar 11 28 Sep 20:54:59 20:59:02 42° 74° (ENE) 21:03:07 145.826/435.025
ZACube-1 28 Sep 20:59:02 21:03:01 48° 75° (ENE) 21:07:01 437.345
PRISM 28 Sep 21:04:16 21:07:37 24° 97° (E) 21:10:55 437.425
SRMSAT 28 Sep 21:05:29 21:06:45 11° 164° (SSE) 21:08:00 437.500
AAUSAT CUBESAT 2 28 Sep 21:10:37 21:14:32 40° 261° (W) 21:18:29 437.432
HUMSAT D 28 Sep 21:13:19 21:14:36 11° 67° (ENE) 21:15:53 437.325/437.525
HO-68 28 Sep 21:32:12 21:37:06 20° 266° (W) 21:42:01 435.675
STRAND 1 28 Sep 21:35:01 21:37:55 15° 295° (WNW) 21:40:48 437.568
AO-85 28 Sep 21:42:10 21:46:43 29° 305° (NW) 21:51:03 145.980
Cosmos 2499 28 Sep 21:48:38 21:54:27 24° 275° (W) 22:00:34 435.465 / 435.565
JUGNU 28 Sep 21:52:30 21:56:46 21° 181° (S) 22:01:02 437.505
FUNcube-1 28 Sep 21:52:43 21:56:32 36° 262° (W) 22:00:22 145.935
CUBEBUG 2 28 Sep 21:54:45 21:56:44 13° 267° (W) 21:58:43 437.445
UWE-3 28 Sep 22:10:34 22:12:33 13° 266° (W) 22:14:33 435.000/436.395/437.385
DELFI C3 28 Sep 22:21:39 22:25:24 40° 261° (W) 22:29:13 145.870
ANTELSAT 28 Sep 22:24:14 22:27:57 26° 97° (E) 22:31:43 437.575/2403.000
Oscar 11 28 Sep 22:33:24 22:35:20 13° 267° (W) 22:37:16 145.826/435.025
PRISM 28 Sep 22:39:37 22:42:45 21° 290° (WNW) 22:45:51 437.425
TIGRISAT 28 Sep 22:44:02 22:48:14 41° 99° (E) 22:52:31 435.000
HUMSAT D 28 Sep 22:45:51 22:49:45 45° 261° (W) 22:53:42 437.325/437.525
SRMSAT 28 Sep 22:51:15 22:55:12 18° 173° (S) 22:59:08 437.500
AISAT 28 Sep 22:56:45 22:59:15 15° 67° (ENE) 23:01:43 437.250
SO-50 28 Sep 22:58:14 22:59:38 11° 45° (NE) 23:01:01 436.795
RS-15 28 Sep 23:09:31 23:17:15 19° 332° (NNW) 23:25:13 29.354- 29.394
AUBIESAT-1 28 Sep 23:16:33 23:19:00 16° 66° (ENE) 23:21:22 437.475
NANOSAT C BR1 28 Sep 23:20:57 23:22:01 11° 93° (E) 23:23:04 145.865
UNISAT 6 28 Sep 23:24:55 23:29:17 59° 285° (WNW) 23:33:44 437.425
BEESAT 3 28 Sep 23:26:22 23:27:14 11° 108° (ESE) 23:28:06 437.485
DX 1 28 Sep 23:27:30 23:30:36 19° 69° (ENE) 23:33:42 434.975-435.025
50 SAT 28 Sep 23:31:09 23:34:17 28° 73° (ENE) 23:37:26 437.505
VELOX 1 28 Sep 23:38:18 23:42:29 42° 73° (ENE) 23:46:40 145.980
CUBEBUG 1 28 Sep 23:39:19 23:43:39 57° 75° (ENE) 23:47:58 437.445
JUGNU 28 Sep 23:41:38 23:45:07 16° 191° (S) 23:48:34 437.505
QB50P2 28 Sep 23:43:18 23:46:48 25° 97° (E) 23:50:17 145.880/145.840
ESTCUBE 1 28 Sep 23:43:35 23:48:06 77° 259° (W) 23:52:39 437.505/2401.250
POLYITAN 1 28 Sep 23:45:29 23:48:59 25° 97° (E) 23:52:29 437.675
M-CUBED/EXP-1 PRIME 28 Sep 23:53:08 23:57:16 58° 72° (ENE) 00:01:07 437.505
ANTELSAT 29 Sep 00:00:58 00:04:30 24° 289° (WNW) 00:08:05 437.575/2403.000
SPROUT 29 Sep 00:14:44 00:18:55 58° 75° (ENE) 00:23:07 437.525
BUGSAT 1 29 Sep 00:19:37 00:22:35 20° 96° (E) 00:25:32 437.445
DUCHIFAT 1 29 Sep 00:21:13 00:25:21 60° 101° (E) 00:29:30 145.980
BEESAT 2 29 Sep 00:21:46 00:24:58 24° 112° (ESE) 00:28:11 435.950
TIGRISAT 29 Sep 00:22:01 00:24:33 15° 292° (WNW) 00:27:08 435.000
QB50P1 29 Sep 00:24:37 00:28:50 78° 102° (ESE) 00:33:03 145.935-145.965
JAS-2 29 Sep 00:27:51 00:35:37 61° 100° (E) 00:42:49 435.910
AISAT 29 Sep 00:31:05 00:35:19 42° 261° (W) 00:39:32 437.250
UKube-1 29 Sep 00:31:07 00:35:26 83° 77° (ENE) 00:39:47 .
SO-50 29 Sep 00:36:08 00:40:40 78° 243° (WSW) 00:45:04 436.795
Cosmos 2491 29 Sep 00:36:21 00:41:20 16° 67° (ENE) 00:46:18 435.465 / 435.565
POPSAT HIP 1 29 Sep 00:38:17 00:42:29 72° 284° (WNW) 00:46:41 437.405
SRMSAT 29 Sep 00:39:30 00:43:41 20° 183° (S) 00:47:54 437.500
AUBIESAT-1 29 Sep 00:49:30 00:53:14 32° 256° (WSW) 00:56:44 437.475
NANOSAT C BR1 29 Sep 00:53:54 00:57:56 47° 286° (WNW) 01:01:58 145.865
BEESAT 3 29 Sep 01:00:40 01:04:25 45° 302° (WNW) 01:08:12 437.485
DX 1 29 Sep 01:02:41 01:06:32 30° 262° (W) 01:10:25 434.975-435.025
50 SAT 29 Sep 01:05:59 01:07:48 13° 266° (W) 01:09:37 437.505
VELOX 1 29 Sep 01:16:43 01:19:04 14° 266° (W) 01:21:26 145.980
QB50P2 29 Sep 01:19:13 01:22:26 21° 290° (WNW) 01:25:38 145.880/145.840
POLYITAN 1 29 Sep 01:21:24 01:24:37 21° 290° (WNW) 01:27:50 437.675
Oscar 19 29 Sep 01:25:19 01:29:18 22° 95° (E) 01:33:16 437.125/150
TISAT 1 29 Sep 01:30:36 01:34:47 84° 80° (E) 01:38:59 437.305
YUBILEINY 29 Sep 01:31:59 01:36:59 17° 80° (E) 01:41:57 435.215
RS-15 29 Sep 01:32:24 01:37:24 13° 11° (N) 01:42:25 29.354- 29.394
ISS 29 Sep 01:42:49 01:43:55 11° 28° (NNE) 01:45:01 145.825
BUGSAT 1 29 Sep 01:54:37 01:57:52 24° 289° (WNW) 02:01:08 437.445
BEESAT 2 29 Sep 01:59:35 02:02:41 22° 306° (NW) 02:05:50 435.950
JAS-2 29 Sep 02:13:51 02:19:54 25° 297° (WNW) 02:25:44 435.910
ITUPSAT 1 29 Sep 02:25:14 02:29:53 58° 74° (ENE) 02:34:34 437.325
SRMSAT 29 Sep 02:29:08 02:32:11 14° 193° (SSW) 02:35:13 437.500
Cosmos 2491 29 Sep 02:30:23 02:39:17 88° 263° (W) 02:48:04 435.465 / 435.565
Gurwin Techsat 1B 29 Sep 02:32:20 02:37:31 50° 100° (E) 02:42:39 435.225
SWISSCUBE 29 Sep 02:37:30 02:42:14 89° 256° (WSW) 02:47:02 437.505
BEESAT 29 Sep 02:50:21 02:55:05 73° 258° (WSW) 02:59:51 436.000
AIST 2 29 Sep 02:54:25 02:58:13 38° 114° (ESE) 03:02:03 435.215
Oscar 19 29 Sep 03:04:00 03:08:38 35° 289° (WNW) 03:13:14 437.125/150
ISS 29 Sep 03:17:32 03:20:49 87° 33° (NNE) 03:24:07 145.825
YUBILEINY 29 Sep 03:23:49 03:32:38 81° 277° (W) 03:41:26 435.215
Cosmos 2504 29 Sep 03:28:26 03:35:12 39° 89° (E) 03:41:43 435.465 / 435.565
RS-15 29 Sep 03:44:50 03:55:42 34° 44° (NE) 04:06:18 29.354- 29.394
PCSat 29 Sep 03:51:32 03:56:49 57° 112° (ESE) 04:02:08 145.827
AO-7 29 Sep 03:54:59 04:02:43 42° 101° (E) 04:10:24 29.400- 29.500
ITAMSAT 1 29 Sep 03:59:30 04:04:45 86° 286° (WNW) 04:09:59 435.822/435.867
MOZHAYETS 4 29 Sep 04:04:58 04:09:30 71° 258° (WSW) 04:14:06
ITUPSAT 1 29 Sep 04:06:29 04:08:01 11° 268° (W) 04:09:33 437.325
AIST 1 29 Sep 04:11:01 04:12:53 13° 86° (E) 04:14:45
Gurwin Techsat 1B 29 Sep 04:13:35 04:17:00 18° 295° (WNW) 04:20:25 435.225
KKS-1 29 Sep 04:20:28 04:24:54 74° 258° (WSW) 04:29:21 437.445
Cosmos 2491 29 Sep 04:30:48 04:34:43 14° 282° (WNW) 04:38:38 435.465 / 435.565
AIST 2 29 Sep 04:34:12 04:36:50 16° 309° (NW) 04:39:29 435.215
STARS 29 Sep 04:50:21 04:54:43 73° 258° (WSW) 04:59:06 437.465
Cosmos 2504 29 Sep 05:22:09 05:28:32 31° 284° (WNW) 05:34:45 435.465 / 435.565
YUBILEINY 29 Sep 05:27:02 05:30:44 13° 295° (WNW) 05:34:26 435.215
CUBESAT XI-V 29 Sep 05:28:20 05:33:00 73° 259° (WSW) 05:37:44 437.345
CUSAT 1 29 Sep 05:30:01 05:36:37 33° 71° (ENE) 05:42:09 437.405
DANDE 29 Sep 05:32:14 05:37:27 18° 65° (ENE) 05:42:23 436.750
HORYU 2 29 Sep 05:35:35 05:39:46 39° 99° (E) 05:43:57 437.375
PCSat 29 Sep 05:36:55 05:40:34 18° 308° (NW) 05:44:12 145.827
AIST 1 29 Sep 05:45:52 05:50:02 41° 280° (W) 05:54:11
AO-7 29 Sep 05:47:52 05:55:18 39° 296° (WNW) 06:02:45 29.400- 29.500
NOAA 15 29 Sep 05:50:06 05:52:53 14° 93° (E) 05:55:39 137.62
RS-15 29 Sep 05:56:59 06:09:17 74° 246° (WSW) 06:21:10 29.354- 29.394
GOMX 1 29 Sep 05:59:25 06:01:34 14° 92° (E) 06:03:41 467.674
CUTE-I 29 Sep 06:10:13 06:14:01 19° 94° (E) 06:17:48 437.470
Cubesat XI-IV 29 Sep 06:10:33 06:14:20 19° 95° (E) 06:18:06 437.490
O/OREOS (USA 219) 29 Sep 06:13:23 06:16:57 23° 101° (ESE) 06:20:33 437.305
BRITE-PL 29 Sep 06:15:45 06:20:24 64° 100° (E) 06:24:41 437.365/2234.400
AO-85 29 Sep 06:17:17 06:21:21 89° 262° (W) 06:25:12 145.980
NOAA 18 29 Sep 07:02:32 07:07:51 50° 101° (E) 07:13:09 137.9125
STRAND 1 29 Sep 07:06:11 07:11:06 52° 73° (ENE) 07:16:03 437.568
CUSAT 1 29 Sep 07:11:58 07:18:35 37° 272° (W) 07:24:03 437.405
DANDE 29 Sep 07:12:52 07:21:20 88° 263° (W) 07:28:46 436.750
HORYU 2 29 Sep 07:13:18 07:15:57 16° 293° (WNW) 07:18:37 437.375
LilacSat-2 29 Sep 07:14:59 07:18:49 67° 283° (WNW) 07:22:38 437.200
HO-68 29 Sep 07:16:51 07:20:04 13° 92° (E) 07:23:18 435.675
NOAA 15 29 Sep 07:27:46 07:32:57 56° 287° (WNW) 07:38:05 137.62
GOMX 1 29 Sep 07:35:53 07:39:50 36° 288° (WNW) 07:43:40 467.674
GONETS M04 29 Sep 07:47:45 07:55:20 34° 86° (E) 08:02:56
CUTE-I 29 Sep 07:49:08 07:54:11 43° 288° (WNW) 07:59:13 437.470
DOVE 4 29 Sep 07:49:12 07:53:19 67° 284° (WNW) 07:57:26 437.250
Cubesat XI-IV 29 Sep 07:49:29 07:54:32 43° 288° (WNW) 07:59:34 437.490
PRISM 29 Sep 07:52:00 07:53:11 11° 66° (ENE) 07:54:22 437.425
O/OREOS (USA 219) 29 Sep 07:52:19 07:56:11 27° 296° (WNW) 08:00:05 437.305
COMPASS 1 29 Sep 08:08:49 08:10:42 13° 93° (E) 08:12:36 437.405
CUBEBUG 2 29 Sep 08:12:35 08:13:50 11° 93° (E) 08:15:05 437.445
RS-15 29 Sep 08:14:38 08:19:32 13° 264° (W) 08:24:22 29.354- 29.394
Cosmos 2499 29 Sep 08:27:04 08:33:55 49° 91° (E) 08:40:37 435.465 / 435.565
UWE-3 29 Sep 08:27:44 08:28:40 11° 92° (E) 08:29:36 435.000/436.395/437.385
SEEDS 29 Sep 08:38:24 08:42:31 47° 99° (E) 08:46:36 437.485
CUTE 1.7 + AOD 2 29 Sep 08:39:43 08:44:02 75° 101° (E) 08:48:18 437.475
CANX-2 29 Sep 08:41:17 08:45:37 88° 282° (WNW) 08:49:55 2200.000
NOAA 18 29 Sep 08:44:24 08:48:03 19° 295° (WNW) 08:51:43 137.9125
STRAND 1 29 Sep 08:47:49 08:50:32 14° 267° (W) 08:53:16 437.568
Oscar 11 29 Sep 08:48:41 08:49:36 11° 92° (E) 08:50:31 145.826/435.025
CINEMA 3 29 Sep 08:49:42 08:53:49 57° 284° (WNW) 08:58:03 145.822/145.860
ZACube-1 29 Sep 08:52:27 08:54:35 13° 93° (E) 08:56:43 437.345
AAUSAT CUBESAT 2 29 Sep 08:56:32 09:00:28 38° 98° (E) 09:04:21 437.432
DANDE 29 Sep 08:58:30 09:02:45 15° 280° (W) 09:06:49 436.750
HO-68 29 Sep 09:01:16 09:08:27 85° 286° (WNW) 09:15:36 435.675
PHONESAT 2.4 29 Sep 09:02:05 09:04:33 25° 147° (SSE) 09:07:01 2401.200-2431.200
ANTELSAT 29 Sep 09:20:53 09:23:03 14° 67° (ENE) 09:25:14 437.575/2403.000
BEESAT 3 29 Sep 09:21:27 09:24:52 27° 55° (NE) 09:28:17 437.485
PRISM 29 Sep 09:23:56 09:27:59 50° 260° (W) 09:32:04 437.425
TIGRISAT 29 Sep 09:39:44 09:42:59 22° 70° (ENE) 09:46:14 435.000
COMPASS 1 29 Sep 09:42:27 09:46:24 40° 286° (WNW) 09:50:20 437.405
GONETS M04 29 Sep 09:43:27 09:51:47 46° 282° (WNW) 10:00:12
FUNcube-1 29 Sep 09:43:44 09:48:00 51° 100° (E) 09:52:21 145.935
CUBEBUG 2 29 Sep 09:46:26 09:50:38 50° 285° (WNW) 09:54:56 437.445
UWE-3 29 Sep 10:01:05 10:05:20 53° 284° (WNW) 10:09:41 435.000/436.395/437.385
DELFI C3 29 Sep 10:02:57 10:06:32 31° 97° (E) 10:10:05 145.870
SEEDS 29 Sep 10:16:03 10:17:45 12° 293° (WNW) 10:19:26 437.485
UNISAT 6 29 Sep 10:19:45 10:24:00 73° 77° (ENE) 10:28:15 437.425
BEESAT 2 29 Sep 10:19:57 10:23:57 61° 61° (ENE) 10:27:53 435.950
Oscar 11 29 Sep 10:21:44 10:25:59 52° 285° (WNW) 10:30:12 145.826/435.025
Cosmos 2499 29 Sep 10:21:45 10:27:14 23° 287° (WNW) 10:32:40 435.465 / 435.565
ZACube-1 29 Sep 10:26:51 10:30:59 43° 286° (WNW) 10:35:12 437.345
HUMSAT D 29 Sep 10:32:50 10:36:46 35° 98° (E) 10:40:42 437.325/437.525
AAUSAT CUBESAT 2 29 Sep 10:33:22 10:35:33 14° 292° (WNW) 10:37:45 437.432
QB50P2 29 Sep 10:34:01 10:35:37 12° 67° (ENE) 10:37:13 145.880/145.840
POLYITAN 1 29 Sep 10:36:14 10:37:49 12° 67° (ENE) 10:39:24 437.675
JAS-2 29 Sep 10:37:28 10:41:39 18° 60° (ENE) 10:46:07 435.910
PHONESAT 2.4 29 Sep 10:37:43 10:40:32 45° 341° (NNW) 10:43:22 2401.200-2431.200
HO-68 29 Sep 10:51:52 10:55:06 14° 303° (WNW) 10:58:19 435.675
ANTELSAT 29 Sep 10:55:23 10:59:23 40° 261° (W) 11:03:24 437.575/2403.000
BEESAT 3 29 Sep 10:59:26 11:02:19 19° 250° (WSW) 11:05:11 437.485
DUCHIFAT 1 29 Sep 11:09:37 11:13:04 26° 71° (ENE) 11:16:32 145.980
QB50P1 29 Sep 11:13:18 11:17:04 33° 73° (ENE) 11:20:51 145.935-145.965
TIGRISAT 29 Sep 11:16:03 11:19:32 24° 263° (W) 11:23:01 435.000
FUNcube-1 29 Sep 11:22:07 11:23:47 12° 293° (WNW) 11:25:28 145.935
POPSAT HIP 1 29 Sep 11:26:42 11:30:44 48° 74° (ENE) 11:34:46 437.405
CUBEBUG 1 29 Sep 11:33:24 11:35:39 14° 93° (E) 11:37:54 437.445
VELOX 1 29 Sep 11:35:16 11:35:51 10° 92° (E) 11:36:27 145.980
DELFI C3 29 Sep 11:38:40 11:41:04 16° 291° (WNW) 11:43:28 145.870
ESTCUBE 1 29 Sep 11:40:20 11:44:18 29° 97° (E) 11:48:14 437.505/2401.250
NANOSAT C BR1 29 Sep 11:41:38 11:45:48 72° 76° (ENE) 11:49:58 145.865
SPROUT 29 Sep 12:06:10 12:08:12 13° 93° (E) 12:10:15 437.525
QB50P2 29 Sep 12:06:55 12:10:58 46° 261° (W) 12:15:02 145.880/145.840
POLYITAN 1 29 Sep 12:09:08 12:13:10 46° 260° (W) 12:17:13 437.675
HUMSAT D 29 Sep 12:09:25 12:12:03 16° 291° (WNW) 12:14:41 437.325/437.525
PHONESAT 2.4 29 Sep 12:14:41 12:17:02 21° 357° (N) 12:19:23 2401.200-2431.200
JAS-2 29 Sep 12:19:21 12:25:40 74° 258° (WSW) 12:32:54 435.910
UKube-1 29 Sep 12:23:05 12:26:03 18° 95° (E) 12:29:00 .
AISAT 29 Sep 12:24:53 12:29:07 46° 100° (E) 12:33:19 437.250
AUBIESAT-1 29 Sep 12:32:13 12:34:20 16° 101° (E) 12:36:28 437.475
50 SAT 29 Sep 12:35:18 12:38:56 60° 101° (E) 12:42:31 437.505
Oscar 19 29 Sep 12:38:30 12:42:32 23° 68° (ENE) 12:46:33 437.125/150
BUGSAT 1 29 Sep 12:39:28 12:43:32 61° 259° (W) 12:47:34 437.445
PCSat 29 Sep 12:44:02 12:48:08 21° 53° (NE) 12:52:12 145.827
DUCHIFAT 1 29 Sep 12:45:36 12:48:41 20° 264° (W) 12:51:47 145.980
QB50P1 29 Sep 12:50:22 12:52:54 16° 266° (W) 12:55:26 145.935-145.965
DX 1 29 Sep 12:54:04 12:58:21 59° 101° (E) 13:02:36 434.975-435.025
AIST 2 29 Sep 12:57:10 13:01:22 77° 243° (WSW) 13:05:32 435.215
POPSAT HIP 1 29 Sep 13:05:49 13:06:43 11° 267° (W) 13:07:38 437.405
CUBEBUG 1 29 Sep 13:08:02 13:12:04 39° 287° (WNW) 13:16:04 437.445
VELOX 1 29 Sep 13:08:18 13:12:35 54° 285° (WNW) 13:16:51 145.980
M-CUBED/EXP-1 PRIME 29 Sep 13:10:11 13:13:27 81° 107° (ESE) 13:16:46 437.505
ESTCUBE 1 29 Sep 13:17:30 13:20:54 21° 291° (WNW) 13:24:16 437.505/2401.250
TISAT 1 29 Sep 13:19:23 13:22:07 17° 95° (E) 13:24:50 437.305
Cosmos 2491 29 Sep 13:32:56 13:38:58 21° 82° (E) 13:45:01 435.465 / 435.565
YUBILEINY 29 Sep 13:39:16 13:47:23 42° 77° (ENE) 13:55:26 435.215
SPROUT 29 Sep 13:40:17 13:44:17 40° 286° (WNW) 13:48:15 437.525
Gurwin Techsat 1B 29 Sep 13:49:29 13:54:39 54° 73° (ENE) 13:59:49 435.225
PHONESAT 2.4 29 Sep 13:50:57 13:53:37 30° 14° (NNE) 13:56:16 2401.200-2431.200
UKube-1 29 Sep 13:58:19 14:02:05 30° 289° (WNW) 14:05:50 .
AISAT 29 Sep 14:03:08 14:05:07 13° 294° (WNW) 14:07:08 437.250
AUBIESAT-1 29 Sep 14:06:17 14:08:44 19° 293° (WNW) 14:11:12 437.475
Oscar 19 29 Sep 14:16:52 14:21:35 35° 262° (W) 14:26:21 437.125/150
PCSat 29 Sep 14:26:33 14:31:43 46° 250° (WSW) 14:36:52 145.827
ITUPSAT 1 29 Sep 14:30:25 14:33:59 20° 95° (E) 14:37:31 437.325
DX 1 29 Sep 14:33:28 14:33:59 10° 295° (WNW) 14:34:30 434.975-435.025
SWISSCUBE 29 Sep 14:41:52 14:46:09 31° 98° (E) 14:50:24 437.505
SO-50 29 Sep 14:45:52 14:50:43 86° 121° (ESE) 14:55:33 436.795
AO-7 29 Sep 14:49:47 14:57:23 41° 65° (ENE) 15:04:59 29.400- 29.500
TISAT 1 29 Sep 14:54:07 14:57:46 30° 288° (WNW) 15:01:25 437.305
BEESAT 29 Sep 14:54:28 14:58:57 38° 99° (E) 15:03:23 436.000
ITAMSAT 1 29 Sep 15:13:31 15:18:41 84° 258° (WSW) 15:23:53 435.822/435.867
Cosmos 2504 29 Sep 15:16:30 15:24:03 70° 83° (E) 15:32:08 435.465 / 435.565
Cosmos 2491 29 Sep 15:26:10 15:34:52 69° 278° (W) 15:43:42 435.465 / 435.565
PHONESAT 2.4 29 Sep 15:26:55 15:29:49 53° 209° (SSW) 15:32:41 2401.200-2431.200
Gurwin Techsat 1B 29 Sep 15:31:55 15:34:51 15° 267° (W) 15:37:48 435.225
YUBILEINY 29 Sep 15:36:18 15:43:55 36° 274° (W) 15:51:32 435.215
AIST 1 29 Sep 15:57:00 16:00:46 29° 78° (ENE) 16:04:30
MOZHAYETS 4 29 Sep 16:04:00 16:08:16 35° 98° (E) 16:12:31
ITUPSAT 1 29 Sep 16:07:29 16:11:49 34° 289° (WNW) 16:16:07 437.325
KKS-1 29 Sep 16:15:39 16:19:27 27° 97° (E) 16:23:12 437.445
SWISSCUBE 29 Sep 16:20:01 16:23:43 22° 292° (WNW) 16:27:24 437.505
O/OREOS (USA 219) 29 Sep 16:26:46 16:30:32 24° 63° (ENE) 16:34:16 437.305
SO-50 29 Sep 16:30:10 16:31:48 12° 314° (NW) 16:33:26 436.795
HORYU 2 29 Sep 16:30:19 16:33:46 23° 69° (ENE) 16:37:14 437.375
BEESAT 29 Sep 16:33:07 16:36:23 19° 293° (WNW) 16:39:40 436.000
AO-7 29 Sep 16:42:28 16:50:03 39° 260° (W) 16:57:40 29.400- 29.500
STARS 29 Sep 16:43:59 16:47:40 26° 97° (E) 16:51:20 437.465
GOMX 1 29 Sep 17:03:21 17:06:09 14° 67° (ENE) 17:08:53 467.674
NOAA 15 29 Sep 17:06:23 17:09:43 17° 65° (ENE) 17:13:03 137.62
Cosmos 2504 29 Sep 17:11:57 17:16:41 18° 277° (W) 17:21:38 435.465 / 435.565
BRITE-PL 29 Sep 17:20:57 17:26:28 53° 74° (ENE) 17:31:53 437.365/2234.400
CUTE-I 29 Sep 17:28:24 17:32:25 23° 67° (ENE) 17:36:28 437.470
Cubesat XI-IV 29 Sep 17:28:54 17:32:56 23° 67° (ENE) 17:36:58 437.490
CUBESAT XI-V 29 Sep 17:29:02 17:33:21 37° 98° (E) 17:37:39 437.345
AIST 1 29 Sep 17:35:24 17:38:03 16° 273° (W) 17:40:43
MOZHAYETS 4 29 Sep 17:41:55 17:45:07 19° 292° (WNW) 17:48:19
KKS-1 29 Sep 17:52:28 17:55:49 22° 291° (WNW) 17:59:10 437.445
LilacSat-2 29 Sep 17:53:18 17:56:37 30° 73° (ENE) 17:59:57 437.200
